| time (UTC) | temp F | wind direction | speed knots | gust knots | rain 1hr in | rain 24hr in | rain mn in | humidity % | barometer mb |
| 20260504050409 | 43 | 157 | 0.0 | 1.7 | 0.00 | 0.00 | 0.00 | 83 | 1018.1 |
| 20260504045906 | 43 | 169 | 0.9 | 1.7 | 0.00 | 0.00 | 0.00 | 84 | 1018.1 |
| 20260504045401 | 42 | 162 | 0.0 | 1.7 | 0.00 | 0.00 | 0.00 | 83 | 1018.1 |
| 20260504044858 | 42 | 163 | 0.0 | 1.7 | 0.00 | 0.00 | 0.00 | 83 | 1018.1 |
| 20260504044356 | 42 | 158 | 0.0 | 1.7 | 0.00 | 0.00 | 0.00 | 83 | 1018.2 |
| 20260504043853 | 42 | 168 | 0.0 | 0.0 | 0.00 | 0.00 | 0.00 | 83 | 1018.2 |
| 20260504043350 | 42 | 161 | 0.0 | 1.7 | 0.00 | 0.00 | 0.00 | 83 | 1018.0 |
| 20260504042847 | 42 | 163 | 0.0 | 1.7 | 0.00 | 0.00 | 0.00 | 83 | 1018.0 |
| 20260504042343 | 42 | 183 | 0.0 | 1.7 | 0.00 | 0.00 | 0.00 | 83 | 1018.1 |
| 20260504041840 | 42 | 164 | 0.0 | 0.0 | 0.00 | 0.00 | 0.00 | 83 | 1018.0 |
| 20260504041336 | 42 | 169 | 0.0 | 1.7 | 0.00 | 0.00 | 0.00 | 83 | 1017.9 |
| 20260504040832 | 42 | 166 | 0.0 | 0.0 | 0.00 | 0.00 | 0.00 | 82 | 1017.9 |
| 20260504040330 | 42 | 152 | 0.0 | 0.0 | 0.00 | 0.00 | 0.00 | 83 | 1018.1 |
| 20260504035826 | 42 | 156 | 0.0 | 0.0 | 0.00 | 0.00 | 0.00 | 83 | 1018.1 |
| 20260504035324 | 42 | 159 | 0.0 | 0.0 | 0.00 | 0.00 | 0.00 | 82 | 1017.8 |
| 20260504034820 | 42 | 158 | 0.0 | 0.0 | 0.00 | 0.00 | 0.00 | 82 | 1017.9 |
| 20260504034318 | 42 | 183 | 0.0 | 0.0 | 0.00 | 0.00 | 0.00 | 82 | 1018.0 |
| 20260504033815 | 42 | 159 | 0.0 | 0.0 | 0.00 | 0.00 | 0.00 | 82 | 1017.7 |
| 20260504033313 | 43 | 159 | 0.0 | 0.0 | 0.00 | 0.00 | 0.00 | 82 | 1018.0 |
| 20260504032809 | 43 | 163 | 0.0 | 0.0 | 0.00 | 0.00 | 0.00 | 82 | 1018.2 |
| 20260504032306 | 43 | 159 | 0.0 | 0.0 | 0.00 | 0.00 | 0.00 | 80 | 1018.0 |
| 20260504031803 | 43 | 157 | 0.0 | 0.0 | 0.00 | 0.00 | 0.00 | 80 | 1017.9 |
| 20260504031300 | 43 | 161 | 0.9 | 1.7 | 0.00 | 0.00 | 0.00 | 80 | 1018.0 |
| 20260504030756 | 43 | 159 | 0.0 | 0.0 | 0.00 | 0.00 | 0.00 | 79 | 1018.0 |
| 20260504030254 | 44 | 156 | 0.0 | 0.0 | 0.00 | 0.00 | 0.00 | 78 | 1018.1 |
| 20260504025750 | 44 | 159 | 0.0 | 0.0 | 0.00 | 0.00 | 0.00 | 78 | 1018.1 |
| 20260504025247 | 44 | 159 | 0.0 | 1.7 | 0.00 | 0.00 | 0.00 | 79 | 1018.1 |
| 20260504024744 | 44 | 156 | 0.0 | 0.0 | 0.00 | 0.00 | 0.00 | 78 | 1018.0 |
| 20260504024240 | 44 | 164 | 0.0 | 0.0 | 0.00 | 0.00 | 0.00 | 77 | 1018.1 |
| 20260504023737 | 44 | 161 | 0.0 | 0.0 | 0.00 | 0.00 | 0.00 | 77 | 1018.0 |
| 20260504023233 | 44 | 159 | 0.0 | 0.0 | 0.00 | 0.00 | 0.00 | 76 | 1018.1 |
| 20260504022729 | 44 | 156 | 0.0 | 0.0 | 0.00 | 0.00 | 0.00 | 76 | 1018.2 |
| 20260504022226 | 45 | 159 | 0.0 | 0.0 | 0.00 | 0.00 | 0.00 | 75 | 1018.2 |
| 20260504021723 | 46 | 159 | 0.0 | 0.0 | 0.00 | 0.00 | 0.00 | 75 | 1018.1 |
| 20260504021220 | 46 | 161 | 0.0 | 0.0 | 0.00 | 0.00 | 0.00 | 73 | 1018.3 |
| 20260504020717 | 46 | 154 | 0.0 | 1.7 | 0.00 | 0.00 | 0.00 | 72 | 1018.3 |
| 20260504020214 | 46 | 155 | 0.0 | 0.0 | 0.00 | 0.00 | 0.00 | 74 | 1018.3 |
| 20260504015710 | 46 | 161 | 0.0 | 0.0 | 0.00 | 0.00 | 0.00 | 73 | 1018.3 |
| 20260504015207 | 46 | 163 | 0.0 | 0.0 | 0.00 | 0.00 | 0.00 | 73 | 1018.0 |
| 20260504014702 | 46 | 157 | 0.0 | 0.0 | 0.00 | 0.00 | 0.00 | 72 | 1018.2 |
| 20260504014159 | 47 | 157 | 0.0 | 0.0 | 0.00 | 0.00 | 0.00 | 72 | 1018.1 |
| 20260504013657 | 47 | 159 | 0.0 | 0.0 | 0.00 | 0.00 | 0.00 | 71 | 1018.0 |
| 20260504013154 | 47 | 138 | 1.7 | 1.7 | 0.00 | 0.00 | 0.00 | 71 | 1018.0 |
| 20260504012651 | 47 | 145 | 0.0 | 0.0 | 0.00 | 0.00 | 0.00 | 71 | 1017.9 |
| 20260504012149 | 47 | 160 | 0.0 | 0.0 | 0.00 | 0.00 | 0.00 | 71 | 1017.9 |
| 20260504011645 | 48 | 159 | 0.0 | 0.0 | 0.00 | 0.00 | 0.00 | 71 | 1018.1 |
| 20260504011142 | 48 | 133 | 0.0 | 1.7 | 0.00 | 0.00 | 0.00 | 70 | 1017.8 |
| 20260504010637 | 48 | 149 | 0.0 | 0.0 | 0.00 | 0.00 | 0.00 | 69 | 1017.8 |
| 20260504010134 | 49 | 151 | 1.7 | 1.7 | 0.00 | 0.00 | 0.00 | 68 | 1017.8 |
| 20260504005631 | 49 | 157 | 0.0 | 1.7 | 0.00 | 0.00 | 0.00 | 68 | 1018.1 |
| 20260504005127 | 49 | 167 | 0.0 | 0.0 | 0.00 | 0.00 | 0.00 | 68 | 1018.1 |
| 20260504004626 | 50 | 151 | 0.9 | 1.7 | 0.00 | 0.00 | 0.00 | 67 | 1017.9 |
| 20260504004123 | 50 | 161 | 0.0 | 1.7 | 0.00 | 0.00 | 0.00 | 67 | 1017.9 |
| 20260504003619 | 51 | 162 | 1.7 | 1.7 | 0.00 | 0.00 | 0.00 | 66 | 1017.7 |
| 20260504003115 | 51 | 165 | 0.0 | 4.3 | 0.00 | 0.00 | 0.00 | 64 | 1017.8 |
| 20260504002612 | 52 | 152 | 2.6 | 4.3 | 0.00 | 0.00 | 0.00 | 63 | 1017.8 |
| 20260504002110 | 53 | 152 | 0.9 | 1.7 | 0.00 | 0.00 | 0.00 | 62 | 1017.9 |
| 20260504001608 | 54 | 140 | 1.7 | 1.7 | 0.00 | 0.00 | 0.00 | 60 | 1018.0 |
| 20260504001103 | 55 | 161 | 0.0 | 1.7 | 0.00 | 0.00 | 0.00 | 57 | 1017.8 |
| 20260504000600 | 57 | 214 | 2.6 | 6.1 | 0.00 | 0.00 | 0.00 | 46 | 1017.8 |
| 20260504000058 | 57 | 164 | 1.7 | 1.7 | 0.00 | 0.00 | 0.00 | 45 | 1017.8 |
| 20260503235556 | 57 | 148 | 0.0 | 0.0 | 0.00 | 0.00 | 0.00 | 45 | 1017.8 |
| 20260503235053 | 57 | 167 | 0.0 | 1.7 | 0.00 | 0.00 | 0.00 | 45 | 1017.7 |
| 20260503234550 | 58 | 181 | 0.9 | 1.7 | 0.00 | 0.00 | 0.00 | 44 | 1017.9 |
| 20260503234048 | 58 | 168 | 0.0 | 4.3 | 0.00 | 0.00 | 0.00 | 44 | 1017.8 |
| 20260503233544 | 58 | 161 | 0.0 | 6.1 | 0.00 | 0.00 | 0.00 | 44 | 1018.0 |
| 20260503233041 | 59 | 220 | 4.3 | 7.8 | 0.00 | 0.00 | 0.00 | 43 | 1018.0 |
| 20260503232538 | 59 | 177 | 2.6 | 4.3 | 0.00 | 0.00 | 0.00 | 42 | 1018.0 |
| 20260503232035 | 59 | 162 | 2.6 | 4.3 | 0.00 | 0.00 | 0.00 | 42 | 1018.0 |
| 20260503231533 | 59 | 157 | 0.9 | 1.7 | 0.00 | 0.00 | 0.00 | 42 | 1017.9 |
| 20260503231029 | 59 | 171 | 1.7 | 4.3 | 0.00 | 0.00 | 0.00 | 41 | 1018.0 |
| 20260503230526 | 60 | 173 | 0.9 | 4.3 | 0.00 | 0.00 | 0.00 | 42 | 1018.0 |
| 20260503230024 | 60 | 132 | 2.6 | 6.1 | 0.00 | 0.00 | 0.00 | 40 | 1018.0 |
| 20260503225520 | 60 | 243 | 2.6 | 4.3 | 0.00 | 0.00 | 0.00 | 40 | 1018.0 |
| 20260503225015 | 60 | 148 | 3.5 | 7.8 | 0.00 | 0.00 | 0.00 | 40 | 1018.1 |
| 20260503224514 | 60 | 281 | 5.2 | 7.8 | 0.00 | 0.00 | 0.00 | 41 | 1018.3 |
| 20260503224011 | 61 | 173 | 3.5 | 6.1 | 0.00 | 0.00 | 0.00 | 40 | 1018.0 |
| 20260503223509 | 60 | 208 | 1.7 | 10.4 | 0.00 | 0.00 | 0.00 | 40 | 1018.2 |
| 20260503223004 | 61 | 213 | 3.5 | 10.4 | 0.00 | 0.00 | 0.00 | 40 | 1018.0 |
| 20260503222502 | 61 | 210 | 3.5 | 7.8 | 0.00 | 0.00 | 0.00 | 40 | 1018.3 |
| 20260503222000 | 60 | 168 | 1.7 | 10.4 | 0.00 | 0.00 | 0.00 | 41 | 1018.2 |
| 20260503221458 | 60 | 258 | 2.6 | 10.4 | 0.00 | 0.00 | 0.00 | 41 | 1018.1 |
| 20260503220955 | 60 | 176 | 4.3 | 6.1 | 0.00 | 0.00 | 0.00 | 40 | 1018.1 |
| 20260503220451 | 60 | 299 | 7.0 | 12.2 | 0.00 | 0.00 | 0.00 | 40 | 1018.2 |
| 20260503215948 | 60 | 237 | 6.1 | 13.9 | 0.00 | 0.00 | 0.00 | 40 | 1018.2 |
| 20260503215445 | 60 | 265 | 7.8 | 10.4 | 0.00 | 0.00 | 0.00 | 39 | 1018.2 |
| 20260503214943 | 61 | 329 | 9.6 | 13.9 | 0.00 | 0.00 | 0.00 | 38 | 1018.4 |
| 20260503214440 | 61 | 356 | 5.2 | 10.4 | 0.00 | 0.00 | 0.00 | 40 | 1018.1 |
| 20260503213937 | 61 | 284 | 7.8 | 12.2 | 0.00 | 0.00 | 0.00 | 39 | 1018.2 |
| 20260503213436 | 61 | 121 | 5.2 | 13.9 | 0.00 | 0.00 | 0.00 | 39 | 1018.0 |
| 20260503212932 | 61 | 203 | 6.1 | 13.9 | 0.00 | 0.00 | 0.00 | 38 | 1018.0 |
| 20260503212429 | 61 | 17 | 7.8 | 10.4 | 0.00 | 0.00 | 0.00 | 41 | 1018.0 |
| 20260503211927 | 61 | 186 | 6.1 | 13.9 | 0.00 | 0.00 | 0.00 | 40 | 1018.0 |
| 20260503211423 | 60 | 264 | 5.2 | 6.1 | 0.00 | 0.00 | 0.00 | 41 | 1017.8 |
| 20260503210919 | 62 | 242 | 4.3 | 10.4 | 0.00 | 0.00 | 0.00 | 38 | 1018.1 |
| 20260503210416 | 60 | 175 | 6.1 | 7.8 | 0.00 | 0.00 | 0.00 | 41 | 1017.9 |
| 20260503205916 | 62 | 227 | 2.6 | 7.8 | 0.00 | 0.00 | 0.00 | 40 | 1018.1 |
| 20260503205414 | 62 | 310 | 7.0 | 12.2 | 0.00 | 0.00 | 0.00 | 40 | 1018.2 |
| 20260503204910 | 62 | 168 | 9.6 | 15.6 | 0.00 | 0.00 | 0.00 | 39 | 1018.2 |
| 20260503204407 | 61 | 185 | 2.6 | 7.8 | 0.00 | 0.00 | 0.00 | 41 | 1018.3 |
| 20260503203904 | 60 | 198 | 2.6 | 12.2 | 0.00 | 0.00 | 0.00 | 41 | 1018.3 |
| 20260503203401 | 61 | 331 | 6.1 | 7.8 | 0.00 | 0.00 | 0.00 | 39 | 1018.5 |
| 20260503202858 | 62 | 275 | 8.7 | 21.7 | 0.00 | 0.00 | 0.00 | 39 | 1018.8 |
| 20260503202356 | 62 | 8 | 1.7 | 7.8 | 0.00 | 0.00 | 0.00 | 40 | 1018.8 |
| 20260503201855 | 60 | 191 | 4.3 | 12.2 | 0.00 | 0.00 | 0.00 | 40 | 1019.0 |
| 20260503201351 | 61 | 216 | 5.2 | 10.4 | 0.00 | 0.00 | 0.00 | 41 | 1018.9 |
| 20260503200849 | 61 | 235 | 2.6 | 6.1 | 0.00 | 0.00 | 0.00 | 42 | 1018.9 |
| 20260503200344 | 60 | 171 | 3.5 | 15.6 | 0.00 | 0.00 | 0.00 | 41 | 1018.9 |
| 20260503195842 | 61 | 163 | 3.5 | 7.8 | 0.00 | 0.00 | 0.00 | 41 | 1019.0 |
| 20260503195338 | 60 | 170 | 5.2 | 13.9 | 0.00 | 0.00 | 0.00 | 40 | 1019.0 |
| 20260503194836 | 61 | 224 | 4.3 | 12.2 | 0.00 | 0.00 | 0.00 | 39 | 1019.1 |
| 20260503194331 | 60 | 144 | 4.3 | 10.4 | 0.00 | 0.00 | 0.00 | 40 | 1019.0 |
| 20260503193828 | 59 | 296 | 0.9 | 4.3 | 0.00 | 0.00 | 0.00 | 42 | 1019.3 |
| 20260503193324 | 60 | 160 | 3.5 | 6.1 | 0.00 | 0.00 | 0.00 | 40 | 1019.5 |
| 20260503192820 | 62 | 232 | 4.3 | 7.8 | 0.00 | 0.00 | 0.00 | 41 | 1019.5 |
| 20260503192315 | 61 | 126 | 1.7 | 4.3 | 0.00 | 0.00 | 0.00 | 42 | 1019.4 |
| 20260503191812 | 60 | 270 | 7.8 | 18.2 | 0.00 | 0.00 | 0.00 | 41 | 1019.6 |
| 20260503191309 | 61 | 245 | 4.3 | 10.4 | 0.00 | 0.00 | 0.00 | 42 | 1019.7 |
| 20260503190806 | 61 | 154 | 4.3 | 13.9 | 0.00 | 0.00 | 0.00 | 40 | 1019.7 |
| 20260503190303 | 59 | 252 | 6.1 | 10.4 | 0.00 | 0.00 | 0.00 | 43 | 1019.8 |
| 20260503185800 | 60 | 139 | 7.0 | 12.2 | 0.00 | 0.00 | 0.00 | 41 | 1019.9 |
| 20260503185255 | 60 | 216 | 1.7 | 7.8 | 0.00 | 0.00 | 0.00 | 43 | 1020.0 |
| 20260503184755 | 58 | 209 | 4.3 | 6.1 | 0.00 | 0.00 | 0.00 | 43 | 1019.9 |
| 20260503184252 | 60 | 312 | 9.6 | 12.2 | 0.00 | 0.00 | 0.00 | 41 | 1020.1 |
| 20260503183748 | 61 | 301 | 4.3 | 12.2 | 0.00 | 0.00 | 0.00 | 41 | 1020.0 |
| 20260503183246 | 60 | 280 | 7.8 | 13.9 | 0.00 | 0.00 | 0.00 | 42 | 1020.2 |
| 20260503182743 | 59 | 182 | 4.3 | 7.8 | 0.00 | 0.00 | 0.00 | 46 | 1020.3 |
| 20260503182242 | 57 | 181 | 1.7 | 6.1 | 0.00 | 0.00 | 0.00 | 45 | 1020.1 |
| 20260503181738 | 57 | 315 | 6.1 | 13.9 | 0.00 | 0.00 | 0.00 | 43 | 1020.3 |
| 20260503181235 | 58 | 315 | 2.6 | 6.1 | 0.00 | 0.00 | 0.00 | 42 | 1020.2 |
| 20260503180731 | 58 | 171 | 2.6 | 7.8 | 0.00 | 0.00 | 0.00 | 42 | 1020.5 |
| 20260503180230 | 58 | 204 | 2.6 | 6.1 | 0.00 | 0.00 | 0.00 | 42 | 1020.5 |
| 20260503175726 | 59 | 171 | 4.3 | 10.4 | 0.00 | 0.00 | 0.00 | 44 | 1020.5 |
| 20260503175225 | 58 | 191 | 6.1 | 10.4 | 0.00 | 0.00 | 0.00 | 43 | 1020.7 |
| 20260503174720 | 59 | 291 | 13.9 | 24.3 | 0.00 | 0.00 | 0.00 | 42 | 1020.8 |
| 20260503174218 | 59 | 315 | 7.0 | 10.4 | 0.00 | 0.00 | 0.00 | 42 | 1020.4 |
| 20260503173713 | 59 | 172 | 2.6 | 4.3 | 0.00 | 0.00 | 0.00 | 43 | 1020.6 |
| 20260503173209 | 58 | 131 | 5.2 | 7.8 | 0.00 | 0.00 | 0.00 | 42 | 1021.0 |
| 20260503172706 | 58 | 289 | 7.8 | 12.2 | 0.00 | 0.00 | 0.00 | 42 | 1020.8 |
| 20260503172203 | 58 | 164 | 4.3 | 12.2 | 0.00 | 0.00 | 0.00 | 41 | 1020.9 |
| 20260503171700 | 57 | 303 | 7.8 | 10.4 | 0.00 | 0.00 | 0.00 | 45 | 1020.8 |
| 20260503171157 | 57 | 262 | 3.5 | 13.9 | 0.00 | 0.00 | 0.00 | 43 | 1020.9 |
| 20260503170654 | 58 | 218 | 0.9 | 6.1 | 0.00 | 0.00 | 0.00 | 43 | 1021.0 |
| 20260503170151 | 58 | 255 | 6.1 | 7.8 | 0.00 | 0.00 | 0.00 | 43 | 1021.0 |
| 20260503160112 | 55 | 212 | 3.5 | 7.8 | 0.00 | 0.00 | 0.00 | 42 | 1021.6 |
| 20260503150542 | 53 | 282 | 8.7 | 10.4 | 0.00 | 0.00 | 0.00 | 45 | 1022.0 |
| 20260503130932 | 47 | 186 | 3.5 | 7.8 | 0.00 | 0.00 | 0.00 | 65 | 1022.3 |
| 20260503130430 | 46 | 145 | 0.9 | 6.1 | 0.00 | 0.00 | 0.00 | 66 | 1022.5 |
| 20260503110829 | 33 | 140 | 0.0 | 0.0 | 0.00 | 0.00 | 0.00 | 97 | 1021.7 |
| 20260503110325 | 33 | 161 | 0.0 | 0.0 | 0.00 | 0.00 | 0.00 | 97 | 1021.7 |
| 20260503100252 | 32 | 155 | 0.0 | 0.0 | 0.00 | 0.00 | 0.00 | 96 | 1021.1 |
| 20260503090211 | 33 | 161 | 0.0 | 1.7 | 0.00 | 0.00 | 0.00 | 95 | 1021.0 |
| 20260503081138 | 35 | 157 | 0.0 | 0.0 | 0.00 | 0.00 | 0.00 | 92 | 1020.9 |
| 20260503080634 | 36 | 157 | 0.0 | 0.0 | 0.00 | 0.00 | 0.00 | 92 | 1021.0 |
| 20260503080131 | 35 | 167 | 0.0 | 1.7 | 0.00 | 0.00 | 0.00 | 92 | 1021.0 |
| 20260503072608 | 35 | 149 | 0.0 | 0.0 | 0.00 | 0.00 | 0.00 | 93 | 1020.7 |
| 20260503072106 | 35 | 155 | 0.0 | 0.0 | 0.00 | 0.00 | 0.00 | 93 | 1020.6 |
| 20260503071602 | 35 | 151 | 0.0 | 0.0 | 0.00 | 0.00 | 0.00 | 93 | 1020.6 |
| 20260503071059 | 35 | 159 | 0.0 | 1.7 | 0.00 | 0.00 | 0.00 | 93 | 1020.7 |
| 20260503070555 | 35 | 159 | 0.0 | 0.0 | 0.00 | 0.00 | 0.00 | 93 | 1020.5 |
| 20260503055014 | 34 | 146 | 1.7 | 1.7 | 0.00 | 0.00 | 0.00 | 93 | 1020.7 |
| 20260503054510 | 34 | 169 | 0.0 | 0.0 | 0.00 | 0.00 | 0.00 | 93 | 1020.8 |
| 20260503054008 | 34 | 166 | 0.9 | 1.7 | 0.00 | 0.00 | 0.00 | 93 | 1020.7 |
| 20260503053506 | 34 | 157 | 0.0 | 1.7 | 0.00 | 0.00 | 0.00 | 93 | 1020.7 |
| 20260503053002 | 34 | 159 | 0.0 | 1.7 | 0.00 | 0.00 | 0.00 | 93 | 1020.5 |